Wind_Speed
31 29 22 30 35 31 32 28 21 19 18 17 25 25 27 29 31 33 36 38 39 41 37 34 29 27 24 19 18 22 24 26 29 29 30 34 36 38 39 39 41 42 43
30 27 26 25 31 34 33 27 25 16 17 24 27 29 31 34 29 31 33 31 33 27 25 20 20 21 21 22 24 24 27 30 30 31 33 36 37 39 42 44 47 50 51
26 25 31 25 28 31 29 25 23 20 26 22 23 27 27 29 32 31 28 25 23 24 23 19 19 20 24 27 30 31 32 33 32 28 29 34 32 33 37 41 45 47 50
27 28 28 36 26 25 24 20 17 19 21 24 26 30 29 29 29 31 28 29 27 25 25 24 26 26 28 29 31 33 35 32 26 30 33 33 37 42 42 42 43 45 47
27 28 25 25 33 29 23 28 23 27 23 26 25 22 20 22 24 23 24 28 30 31 29 29 29 29 32 33 33 33 26 24 29 38 35 36 37 40 42 41 43 46 46
30 29 28 27 25 29 26 25 27 21 22 18 22 22 22 25 24 26 23 24 24 25 28 26 28 30 29 33 33 33 37 42 45 40 40 38 38 44 50 48 46 46 47
30 34 32 27 25 20 21 24 28 22 23 25 25 29 31 31 27 31 28 28 24 25 29 30 32 32 31 33 35 38 42 47 48 46 49 50 54 53 58 58 53 54 52
32 35 33 29 29 21 21 18 15 31 30 30 31 30 30 30 32 32 35 36 36 34 33 35 35 34 35 37 39 44 46 45 46 50 53 55 57 61 61 63 58 54 58
34 35 36 33 33 33 30 32 28 28 34 39 38 39 39 32 36 41 41 42 42 39 39 35 39 42 42 42 46 51 49 47 50 52 53 55 62 65 62 63 60 57 57
36 36 40 40 41 40 37 37 38 34 36 41 42 45 43 45 45 43 40 46 47 46 45 43 45 47 48 51 50 52 52 54 57 57 59 62 67 67 60 60 60 65 68
41 39 41 45 44 45 47 45 44 40 26 38 44 43 46 48 47 47 47 47 45 47 47 47 47 51 55 54 56 55 56 59 64 64 68 70 69 63 63 64 66 69 73
31 37 41 44 48 47 52 52 50 46 48 40 41 38 41 46 50 52 50 51 49 47 48 48 48 50 55 59 60 58 61 67 68 71 75 74 67 70 69 71 72 73 74
30 33 38 40 46 50 48 55 59 58 58 54 56 57 54 54 56 57 58 58 56 54 55 59 60 60 60 62 63 66 68 69 72 76 74 69 71 71 71 74 75 75 75
35 37 34 35 39 44 49 52 56 62 62 63 58 57 52 53 59 60 62 62 62 63 65 61 61 60 63 67 67 69 71 76 77 71 70 72 76 76 78 73 72 73 77
37 38 38 38 36 39 45 55 58 62 66 69 69 68 69 69 69 72 73 75 74 72 70 68 70 71 72 70 72 72 76 77 73 71 75 78 78 76 74 74 74 78 81
37 40 42 45 46 43 44 45 60 68 69 74 73 74 75 78 80 81 80 80 79 78 77 71 71 71 70 73 77 79 76 76 73 79 81 81 76 75 75 77 78 84 86
40 40 42 42 43 39 40 46 58 62 74 76 80 82 81 84 85 86 82 83 81 80 79 78 80 83 84 84 81 78 78 82 86 88 86 82 79 77 78 81 86 91 93
42 44 46 45 46 45 45 44 46 58 70 73 82 88 87 85 84 84 85 86 89 91 90 86 84 82 75 79 85 87 89 93 94 91 84 82 82 82 84 89 93 97 99
45 45 47 47 50 52 49 46 51 48 52 71 78 82 85 86 86 85 86 83 83 82 84 85 83 83 88 89 87 91 91 91 87 86 85 85 86 89 93 96 100 103 103
46 44 44 47 48 51 52 48 44 40 42 47 56 73 81 81 84 85 84 82 82 83 87 88 87 86 87 89 91 90 89 90 91 88 89 91 94 97 99 102 105 104 105
48 48 47 50 52 51 52 55 51 50 50 52 51 54 61 72 77 79 79 82 86 89 90 89 88 86 88 91 94 94 92 90 91 94 94 96 99 102 106 108 106 108 111
59 56 56 55 55 53 55 56 55 56 58 60 63 63 64 67 71 74 78 83 85 87 88 89 89 89 89 90 92 95 96 96 98 100 100 103 107 110 108 109 112 109 105
68 64 63 59 59 60 60 59 59 59 60 65 69 70 72 74 75 77 80 82 85 87 89 89 90 93 96 96 98 101 105 106 107 106 109 112 112 109 112 111 109 102 91
66 68 70 69 68 69 69 69 71 74 75 74 75 76 79 81 80 82 85 87 90 93 95 96 96 98 98 101 103 105 107 111 114 115 116 116 116 113 108 103 97 88 80
71 74 76 77 78 79 78 77 77 79 81 82 83 85 87 89 91 94 94 96 97 99 102 102 103 104 106 108 110 111 112 116 117 119 118 116 111 99 92 85 78 72 67
84 83 83 84 84 85 85 85 85 86 87 88 88 91 94 96 96 98 100 102 104 107 109 109 109 110 115 118 120 121 122 120 114 108 101 92 86 81 81 79 78 71 63
Wind_Direction
240 237 221 233 246 259 273 278 288 292 274 254 247 232 239 251 258 269 276 277 279 287 290 287 286 284 278 264 270 279 285 288 287 285 284 288 294 295 295 292 290 290 289
243 248 222 225 237 249 254 264 268 266 272 254 247 249 254 267 273 274 288 281 281 284 284 291 291 279 271 274 280 290 292 286 284 287 292 298 297 302 301 299 295 292 289
246 248 236 232 238 240 248 252 253 253 253 257 259 263 265 268 278 278 281 291 270 275 275 279 281 279 278 278 281 284 285 287 289 297 295 297 296 304 305 302 306 305 301
249 250 257 235 242 246 240 243 256 254 257 259 262 268 274 273 280 281 278 277 272 267 269 276 277 274 276 280 277 279 282 287 290 292 299 291 295 297 301 309 309 305 304
251 241 248 244 242 253 253 246 270 265 262 256 255 264 267 278 285 291 296 282 268 264 270 274 282 286 288 285 284 283 267 287 296 304 299 302 303 307 302 304 309 312 304
258 248 245 252 246 254 256 255 269 263 259 262 255 253 274 283 287 281 290 294 278 270 268 271 276 285 284 283 283 278 269 276 295 292 295 299 300 309 306 295 300 301 308
265 246 239 247 239 245 255 262 258 268 270 259 256 274 283 284 283 278 269 281 290 286 279 276 278 276 279 282 283 285 288 288 289 291 292 293 297 300 306 310 299 299 299
279 252 233 235 233 225 230 240 262 269 266 271 272 273 281 278 270 273 272 266 282 286 286 282 283 280 277 278 279 285 288 287 289 290 293 298 299 305 303 305 306 300 299
280 255 236 223 232 225 225 231 239 249 272 267 268 274 272 272 275 279 277 266 272 281 283 285 283 280 278 285 287 293 293 289 289 294 297 300 303 302 302 304 303 295 300
276 254 237 228 229 224 224 232 235 240 248 261 267 269 270 275 276 270 274 273 268 271 276 280 281 282 282 284 288 290 287 286 290 295 296 300 303 302 302 302 300 297 302
282 255 236 234 232 230 231 233 235 237 239 248 255 258 269 269 271 273 270 268 271 272 275 278 279 280 280 284 287 290 289 289 289 292 297 297 299 300 299 300 300 302 303
256 254 249 236 233 229 231 231 231 238 236 255 251 263 270 270 270 267 269 273 271 270 274 280 281 281 282 283 287 286 289 290 291 292 297 300 296 298 299 300 304 305 304
255 252 254 245 238 238 231 232 235 234 240 243 250 258 264 268 267 270 274 276 275 270 276 280 283 282 280 281 284 288 292 291 292 296 299 295 298 299 299 303 306 304 303
256 253 248 249 246 244 240 237 239 239 239 241 248 252 256 263 266 271 273 272 269 271 274 277 280 278 279 281 287 290 290 292 295 295 295 293 297 299 304 304 304 304 304
257 251 249 245 247 247 245 239 236 241 241 244 247 249 249 253 257 263 267 271 274 276 277 278 279 284 289 289 291 291 291 292 292 290 293 296 298 300 301 302 302 304 304
267 255 253 252 252 251 254 251 244 238 242 238 240 244 250 253 258 261 264 268 271 275 279 280 282 282 286 289 289 290 289 291 287 292 295 296 297 298 298 300 302 304 307
271 265 252 258 257 255 262 260 252 247 244 247 248 246 249 254 257 260 265 270 273 277 277 278 280 282 286 288 288 288 286 287 291 292 294 294 294 295 296 300 303 305 307
276 269 256 256 261 260 268 273 277 259 248 248 246 249 253 257 260 263 266 268 269 272 276 279 284 285 281 283 283 281 286 287 289 291 293 293 293 294 297 300 303 306 308
280 272 265 260 264 268 273 282 290 273 263 251 248 248 252 256 261 264 267 270 273 274 274 277 276 276 278 280 282 283 286 288 290 291 290 291 293 294 296 300 303 305 307
287 279 269 267 267 270 273 279 285 276 273 269 264 257 256 258 261 264 265 267 269 271 275 276 276 276 276 279 282 284 285 288 289 288 290 291 292 294 296 299 301 304 304
284 283 279 272 268 272 273 277 279 278 275 274 273 269 266 264 266 266 269 270 270 270 273 274 277 278 279 281 282 282 283 285 286 287 290 291 292 294 298 299 301 302 303
283 279 279 278 277 274 274 272 272 274 273 273 273 273 271 270 269 269 270 270 271 271 272 274 276 277 278 279 280 282 283 284 285 287 288 291 293 295 297 298 298 300 301
281 277 275 274 275 275 273 273 272 272 271 268 268 269 269 271 272 272 272 273 273 275 275 277 278 279 279 280 280 281 283 284 285 285 286 289 292 294 294 297 297 299 297
277 278 277 276 276 276 276 276 277 277 276 272 271 271 273 273 273 272 272 272 273 274 275 275 276 277 279 281 282 282 283 284 286 287 287 289 292 295 293 294 296 293 295
277 278 278 277 277 277 277 276 275 274 275 275 274 274 274 274 275 276 276 276 276 277 278 279 280 279 279 280 281 282 283 282 284 287 290 288 292 292 291 290 289 285 288
274 275 275 276 276 277 278 279 279 279 278 277 277 278 277 276 276 277 278 278 278 278 278 279 279 279 279 280 280 281 281 282 284 285 286 286 286 286 285 285 285 287 287
Height
10884 10887 10890 10895 10897 10900 10903 10901 10895 10893 10894 10894 10896 10899 10901 10902 10903 10904 10903 10903 10901 10900 10898 10896 10895 10893 10893 10892 10891 10891 10891 10890 10890 10889 10888 10886 10883 10881 10878 10875 10872 10870 10867
10878 10881 10885 10889 10889 10891 10893 10893 10890 10889 10889 10890 10891 10894 10895 10895 10896 10897 10896 10894 10894 10894 10893 10891 10890 10890 10890 10890 10888 10887 10886 10886 10885 10884 10882 10879 10876 10873 10870 10867 10864 10860 10856
10872 10875 10879 10881 10883 10884 10886 10886 10885 10884 10886 10886 10887 10889 10889 10889 10889 10890 10889 10888 10889 10889 10888 10886 10885 10885 10886 10885 10883 10881 10879 10878 10877 10875 10873 10871 10868 10865 10862 10859 10854 10849 10844
10868 10869 10872 10874 10877 10881 10881 10881 10882 10881 10882 10882 10881 10882 10883 10883 10883 10883 10883 10883 10883 10883 10882 10881 10880 10879 10879 10879 10877 10876 10874 10873 10871 10869 10867 10864 10862 10857 10853 10848 10843 10839 10834
10864 10864 10867 10869 10873 10877 10875 10875 10874 10874 10875 10876 10875 10877 10878 10879 10879 10878 10876 10875 10876 10876 10876 10874 10873 10873 10872 10870 10869 10868 10868 10866 10865 10862 10859 10856 10852 10848 10844 10838 10834 10828 10823
10858 10860 10863 10866 10868 10869 10869 10869 10870 10869 10868 10868 10869 10870 10871 10871 10872 10870 10870 10870 10869 10868 10867 10867 10866 10865 10863 10862 10862 10861 10861 10857 10856 10853 10850 10846 10842 10838 10834 10828 10824 10819 10813
10847 10852 10857 10860 10864 10863 10862 10861 10861 10861 10861 10861 10861 10862 10863 10863 10863 10864 10864 10864 10863 10861 10860 10858 10858 10857 10857 10855 10854 10853 10851 10848 10845 10842 10839 10835 10830 10825 10819 10815 10811 10806 10800
10839 10843 10848 10852 10854 10854 10854 10855 10855 10853 10854 10854 10854 10854 10855 10855 10856 10856 10856 10854 10855 10854 10853 10851 10849 10848 10848 10847 10846 10844 10841 10837 10834 10830 10827 10823 10818 10813 10806 10801 10796 10792 10787
10828 10833 10837 10841 10842 10842 10844 10845 10847 10848 10843 10843 10844 10846 10847 10846 10847 10846 10846 10844 10844 10844 10843 10842 10840 10838 10836 10835 10834 10832 10829 10826 10821 10817 10813 10809 10804 10798 10793 10787 10782 10778 10772
10819 10821 10825 10829 10829 10830 10833 10836 10840 10841 10836 10830 10828 10832 10833 10835 10836 10836 10836 10835 10834 10833 10832 10831 10830 10828 10826 10824 10822 10819 10815 10811 10806 10802 10798 10795 10790 10784 10778 10772 10766 10762 10756
10809 10808 10812 10814 10817 10820 10824 10826 10831 10833 10832 10829 10825 10821 10822 10823 10823 10823 10824 10824 10824 10822 10820 10818 10817 10815 10813 10810 10809 10805 10801 10796 10791 10787 10783 10780 10776 10768 10763 10757 10752 10744 10736
10795 10796 10799 10801 10804 10808 10811 10815 10818 10820 10823 10820 10813 10813 10812 10812 10811 10808 10809 10812 10812 10810 10808 10807 10804 10800 10798 10796 10793 10790 10786 10782 10779 10774 10768 10763 10757 10755 10750 10740 10732 10725 10717
10785 10786 10787 10789 10791 10794 10799 10801 10805 10806 10807 10808 10806 10805 10804 10798 10795 10793 10795 10797 10798 10798 10794 10791 10788 10786 10784 10780 10776 10772 10767 10764 10761 10756 10752 10746 10739 10733 10728 10722 10714 10706 10698
10775 10774 10776 10777 10779 10781 10784 10786 10789 10791 10792 10793 10792 10793 10791 10788 10784 10782 10780 10779 10780 10780 10779 10776 10773 10770 10767 10765 10762 10758 10752 10748 10744 10738 10733 10726 10720 10714 10707 10699 10692 10686 10678
10763 10764 10766 10767 10769 10769 10771 10773 10774 10776 10777 10777 10776 10776 10775 10773 10771 10766 10764 10763 10764 10764 10761 10759 10756 10753 10749 10746 10743 10740 10735 10733 10727 10720 10715 10709 10702 10696 10688 10681 10674 10666 10658
10752 10752 10753 10755 10756 10758 10759 10758 10759 10760 10760 10760 10760 10759 10757 10757 10757 10752 10750 10748 10747 10745 10744 10741 10738 10735 10731 10726 10723 10721 10717 10714 10708 10702 10696 10689 10683 10677 10669 10662 10654 10646 10638
10740 10740 10740 10740 10743 10744 10744 10744 10745 10744 10745 10744 10743 10742 10741 10738 10737 10736 10735 10734 10732 10730 10728 10725 10721 10717 10712 10706 10704 10700 10697 10694 10688 10683 10677 10671 10664 10658 10652 10643 10634 10624 10617
10726 10725 10725 10725 10726 10729 10729 10727 10725 10723 10724 10724 10725 10724 10724 10723 10720 10718 10717 10715 10714 10711 10708 10707 10701 10698 10693 10688 10683 10681 10675 10669 10664 10660 10655 10647 10641 10637 10630 10622 10612 10603 10594
10714 10712 10711 10711 10712 10712 10712 10710 10707 10702 10701 10702 10703 10704 10703 10703 10702 10699 10698 10695 10693 10691 10688 10687 10685 10681 10676 10672 10664 10659 10653 10647 10642 10638 10632 10624 10620 10613 10606 10599 10591 10583 10574
10702 10700 10698 10697 10699 10698 10696 10694 10692 10689 10686 10684 10684 10685 10684 10683 10681 10681 10679 10677 10674 10669 10667 10666 10663 10660 10656 10650 10643 10637 10630 10624 10622 10615 10609 10604 10597 10589 10583 10578 10569 10561 10553
10691 10690 10688 10686 10686 10685 10681 10678 10678 10675 10672 10670 10668 10667 10666 10665 10662 10661 10660 10658 10655 10651 10646 10643 10639 10637 10632 10627 10622 10614 10608 10605 10598 10592 10588 10583 10574 10566 10560 10552 10543 10536 10528
10680 10678 10675 10671 10669 10671 10669 10665 10662 10660 10657 10654 10650 10650 10649 10644 10642 10641 10639 10635 10631 10627 10625 10622 10618 10614 10609 10604 10596 10588 10583 10580 10574 10568 10564 10558 10551 10543 10535 10528 10519 10511 10504
10661 10660 10658 10656 10652 10649 10649 10648 10646 10643 10641 10639 10633 10630 10628 10625 10623 10621 10615 10611 10607 10603 10600 10597 10593 10587 10582 10580 10573 10566 10556 10550 10547 10544 10538 10533 10525 10521 10510 10502 10492 10485 10478
10643 10640 10636 10634 10633 10630 10629 10629 10627 10624 10620 10618 10614 10610 10604 10600 10600 10596 10590 10587 10582 10576 10573 10570 10567 10561 10557 10550 10544 10538 10532 10524 10515 10510 10507 10501 10494 10488 10479 10470 10464 10460 10456
10622 10618 10615 10611 10609 10606 10604 10605 10605 10601 10596 10592 10589 10585 10580 10576 10569 10564 10562 10559 10554 10547 10540 10538 10535 10529 10525 10519 10513 10508 10503 10493 10489 10482 10479 10469 10463 10457 10453 10448 10443 10438 10435
10601 10598 10593 10588 10585 10581 10577 10576 10574 10569 10566 10564 10561 10555 10549 10544 10542 10537 10530 10524 10520 10512 10505 10504 10502 10497 10488 10480 10476 10472 10466 10463 10461 10453 10447 10444 10437 10431 10428 10424 10421 10417 10412